User: anonymous   Login
Location: Feigenhofen
(48.4939°N, 10.7793°E)
Time: 07:22:37
(UTC+00:00)
Language:

GP-B - Orbit

View from above orbital plane
View from above orbital plane
View from above satellite
View from above satellite

Ground track
Ground track

The orbit data is extracted from the following two-line orbital elements,

1 28230U 04014A   22228.82468929  .00000358  00000-0  46165-4 0  9990
2 28230  89.8113  80.2711 0001944  89.5141 270.6304 14.79101889445072
Epoch (UTC): 16 August 2022 19:47:33
Eccentricity: 0.0001944
inclination: 89.8113°
perigee height: 631 km
apogee height: 633 km
right ascension of ascending node: 80.2711°
argument of perigee: 89.5141°
revolutions per day: 14.79101889
mean anomaly at epoch: 270.6304°
orbit number at epoch: 44507

The dashed part of the orbit path shows where the satellite is in the earth's shadow,  

DLR